Location: Kitt Peak
(31.9514°N, 111.6156°W)
Time: 12:50:46
(UTC-07:00)

X-37B - Visible Passes

Search period start: 16 January 2022 00:00
Search period end: 26 January 2022 00:00
Orbit: 334 x 337 km, 45.0° (Epoch: 11 January)

Date Brightness Start Highest point End Pass type
(mag) Time Alt. Az. Time Alt. Az. Time Alt. Az.
16 Jan 0.1 06:04:11 73° NW 06:04:24 87° NNE 06:07:13 10° SE visible
17 Jan 1.8 06:24:02 21° WSW 06:24:43 23° SW 06:27:03 10° SSE visible
22 Jan 3.0 19:38:18 10° SSW 19:39:00 15° SSW 19:39:00 15° SSW visible
23 Jan 2.8 18:25:39 10° SE 18:26:10 10° SE 18:26:40 10° SE visible
23 Jan 3.7 19:58:33 10° WSW 19:59:02 14° WSW 19:59:02 14° WSW visible
24 Jan 1.1 18:43:45 10° SSW 18:46:22 36° SE 18:47:45 21° E visible
25 Jan 0.7 19:03:59 10° WSW 19:06:45 55° NNW 19:07:38 35° NNE visible
